Regional Weather Roundup
Issued by NWS Sterling, VA

Home | Current Version | Previous Version | Graphics & Text | Print | Product List | Glossary On
Versions: 1 2 3 4 5 6 7 8 9 10 11 12 13 14 15 16 17 18 19 20 21 22 23 24 25 26 27
000
ASUS41 KLWX 141711
RWRLWX

REGIONAL WEATHER ROUNDUP
NATIONAL WEATHER SERVICE BALTIMORE MD/WASHINGTON DC
1200 PM EST THU DEC 14 2017

Note: "FAIR" indicates few or no clouds below 12,000 feet
with no significant weather and/or obstructions to visibility.
 TC=TEMPERATURE CELSIUS

 * =Non NWS site. Station does not report precipitation (e.g. rain,
    snow, etc.), thunder, or fog.

DCZ001-MDZ009-015-VAZ040>042-051-053>054-141800-
WASHINGTON METRO

CITY           SKY/WX    TMP DP  RH WIND       PRES   REMARKS
WASHINGTON NAT PTSUNNY   41  20  43 NW17G30   29.88R
DULLES         PTSUNNY   39  18  42 NW22G28   29.87R WCI  29
ANDREWS AFB    CLOUDY    38  17  43 NW21      29.91R WCI  28
FT BELVOIR     CLOUDY    39  18  41 NW17      29.88R
COLLEGE PARK*  CLOUDY    40  17  39 W10G17    29.86R
LEESBURG*      CLOUDY    36  21  55 NW13G21   29.89S WCI  27
MANASSAS*      CLOUDY    39  20  46 N16G23    29.89R
GAITHERSBURG*  CLOUDY    34  17  50 NW10G21   29.87R WCI  26

$$

MDZ006>007-011-014-141800-
BALTIMORE METRO

CITY           SKY/WX    TMP DP  RH WIND       PRES   REMARKS
BWI AIRPORT    MOSUNNY   39  19  44 NW16G28   29.86R
MD SCIENCE CTR   N/A     38  18  44 MISG      29.86R
MARTIN STATE   PTSUNNY   39  25  56 W16G25    29.87R
ANNAPOLIS      CLOUDY    38  26  62 NW15G22   29.86R
FORT MEADE*    MOSUNNY   36  25  64 NW15      29.90R WCI  26

$$

MDZ012-015-019>023-141800-
MARYLAND EASTERN SHORE

CITY           SKY/WX    TMP DP  RH WIND       PRES   REMARKS
OCEAN CITY     SUNNY     45  26  47 NW18G36   29.80R
SALISBURY      MOSUNNY   45  26  47 NW24G36   29.80R
BAY BRIDGE AP* MOSUNNY   39  25  56 NW18G26   29.86R
CAMBRIDGE*     CLOUDY    43  27  52 NW17G24   29.83R
EASTON*        MOSUNNY   41  25  52 N20G28    29.88R

$$

MDZ017>025-141800-
SOUTHERN MARYLAND

CITY           SKY/WX    TMP DP  RH WIND       PRES   REMARKS
PATUXENT RIVER MOSUNNY   45  24  43 NW25G31   29.83R
ST INIGOES     SUNNY     46  23  40 NW14G25   29.83R
LEONARDTOWN*   SUNNY     45  21  39 NW12G22   29.84R

$$

MDZ003>005-141800-
NORTH CENTRAL MARYLAND

CITY           SKY/WX    TMP DP  RH WIND       PRES   REMARKS
FREDERICK*     PTSUNNY   36  12  38 N13G23    29.91R WCI  27
HAGERSTOWN APT PTSUNNY   34  20  56 NW16      29.86R WCI  24
WESTMINSTER*   MOSUNNY   34  19  55 NW12G23   29.83R WCI  25

$$

MDZ501>502-141800-
WESTERN MARYLAND

CITY           SKY/WX    TMP DP  RH WIND       PRES   REMARKS
OAKLAND*       CLOUDY    19  16  86 NW10G22   29.74R WCI   8
CUMBERLAND*    MOSUNNY   32  19  59 W12G31    29.92R WCI  23

$$

VAZ025>031-141800-
SHENANDOAH VALLEY

CITY           SKY/WX    TMP DP  RH WIND       PRES   REMARKS
WINCHESTER*    PTSUNNY   34  18  51 NW16      29.86S WCI  23
FRONT ROYAL*   PTSUNNY   36  19  51 MISG      29.85R
LURAY*         CLOUDY    39  19  45 NW8       29.84S
NEW MARKET*    MOSUNNY   39  16  39 W13G21    29.84R
STAUNTON*      MOSUNNY   37  17  45 W6        29.85S
WAYNESBORO*    SUNNY     40  19  44 NW12G17   29.81F

$$

WVZ021-048>050-054>055-141800-
EASTERN WEST VIRGINIA PANHANDLE

CITY           SKY/WX    TMP DP  RH WIND       PRES   REMARKS
MARTINSBURG    CLOUDY    34  15  46 W13G22    29.87R WCI  25
PETERSBURG*    PTSUNNY   35  17  48 SW13G20   29.87S WCI  26

$$

VAZ036>039-050-141800-
CENTRAL FOOTHILLS

CITY           SKY/WX    TMP DP  RH WIND       PRES   REMARKS
CHARLOTTESVILL SUNNY     46  21  37 N8G18     29.83R
CULPEPER*      CLOUDY    45  18  35 N14       29.87R
ORANGE*        SUNNY     43  21  42 NW7       29.84R
GORDONSVILLE*  MOSUNNY   45  21  38 NW12      29.83S
WARRENTON*     CLOUDY    44  18  36 N13G20    29.86R

$$

VAZ055>057-141800-
NORTH AND CENTRAL PIEDMONT

CITY           SKY/WX    TMP DP  RH WIND       PRES   REMARKS
FREDERICKSBRG* MOSUNNY   46  24  42 NW14      29.85R
STAFFORD*      MOSUNNY   43  20  39 NW17      29.90R

$$

NCZ024-NYZ072-PAZ021-071-VAZ022-071-141800-
OTHER REGIONAL OBSERVATIONS

CITY           SKY/WX    TMP DP  RH WIND       PRES   REMARKS
NEW YORK CITY  MOSUNNY   29  17  61 NW10G18   29.76R WCI  20
PHILADELPHIA   MOSUNNY   33  22  63 W13       29.81R WCI  24
PITTSBURGH     PTSUNNY   26  14  60 NW13      29.94R WCI  15
ROANOKE        MOSUNNY   43  22  43 NW20G25   29.87R
RICHMOND       PTSUNNY   51  23  33 N13       29.81F
RALEIGH        MOSUNNY   53  24  32 W12G17    29.86S

$$

ANZ530>537-141800-
MARINE OBSERVATIONS

STATION/POSITION TIME  TEMP    WIND        PRES
                       AIR SEA DIR/SP/G
                 (UTC) (F)     (DEG/KT/KT) (MB)
THOMAS PT LIGHT  1700   38 45  320/ 23/ 26   N/A
BALT KEY BRIDGE  1642   37     280/ 15/ 19 1010.8R
COVE POINT       1642   42     320/ 16/ 28 1010.9R
LEWISETTA        1642   44 42  340/ 14/ 19 1010.1R
SOLOMONS ISLAND  1642   44 46  330/ 16/ 24 1009.4R
PINEY POINT      1642          330/ 21/ 23   N/A

$$





USA.gov is the U.S. government's official web portal to all federal, state and local government web resources and services.